Погода в Хабаровске

Погода в Хабаровске : погода сейчас, прогноз погоды и архив. Всё, что Вы хотите узнать о погоде в Хабаровске!

Хотите узнать прогноз погоды в Хабаровске? Тогда Вам сюда: Погода в Хабаровске

Поиск расширенной информации на нашем сайте:

Другие новости

Новости СМИ2

Главная страница сайта

Новости сайта

03.07.2017

Напоминаем, что на нашем специализированном сайте Метеоцентр.Азия вы можете получить высокодетализированные автоматические прогнозы погоды по пунктам России, СНГ и мира в авиационном формате (включающие направление и скорость ветра, видимость, явления погоды, количество и форму облачности, нижнюю и верхнюю границу облачности).


Погода в Хабаровске - сегодня

Время (UTC), дата Ветер
(°,м/с) 
Видим.   Явления Облачность Т
(°С)
Тd
(°С)
f(%) Тe
(°С)
Pmin
(гПа)
dP
(гПа)
Po
(мм)
O2
(г/м3)
Тmin Tmax R s Состояние
почвы
15 13.02.18 240 (ЮЗ) 10 км  {снег}  4/0 средняя 
[Ac trans]
-17.1 -20.8 73 -25  1007.1  -0.6  748  323           
21 13.02.18 230 (ЮЗ) 9{11}  10 км  позёмок  3/0 средняя, верхняя 
[Ac trans|Ci fib]
-19 -24.1 64 -28  1006.7  -0.1  748  326  -19.2    0.0     
03 14.02.18 230 (ЮЗ) 8{11}  10 км    6/0 средняя, верхняя 
[Ac trans|Ci fib]
-14.5 -20.6 60 -22  1006.6  -0.8  748  320           
06 14.02.18 240 (ЮЗ) 8{11}  10 км    3/0 верхняя 
[Ci fib]
-12.9 -19.5 58 -20  1005.9  -0.6  748  318           
12 14.02.18 250 (З) 10 км    ясно 
-14.7 -20.9 59 -21  1006.5  -0.2  748  320           
15 14.02.18 230 (ЮЗ) 10 км    ясно 
-17.9 -23.5 62 -24  1006.9  0.2  748  324           
18 14.02.18 240 (ЮЗ) 10 км    ясно 
-17.7 -24 58 -25  1007.7  0.8  749  324           
21 14.02.18 240 (ЮЗ) 10 км    ясно 
-18.4 -24.9 57 -25  1008.7  749  326  -18.8         
00 15.02.18 250 (З) 7{10}  10 км    ясно 
-17.2 -23.7 57 -25  1009.5  0.9  750  324           
03 15.02.18 250 (З) 10 км    4/0 верхняя 
[Ci fib]
-11.9 -21.1 46 -18  1009.1  -0.3  750  317           
12 15.02.18 250 (З) 7{12}  10 км    ясно 
-12.9 -20.5 53 -19  1009.7  0.3  750  319           
15 15.02.18 250 (З) 10 км    ясно 
-15.4 -23.6 49 -20  1010.2  0.3  751  322           
18 15.02.18 250 (З) 10 км    ясно 
-15.9 -24.7 47 -24  1010.5  0.4  751  323           
00 16.02.18 250 (З) 5{10}  10 км    ясно 
-16.3 -24.7 48 -22  1011  0.6  751  324  -18         
03 16.02.18 250 (З) 10 км    ясно 
-12.4 -22.7 42 -18  1010.3  -0.7  751  318           
06 16.02.18 250 (З) 10 км    ясно 
-11 -22.3 39 -16  1009.4  -0.8  750  317           
12 16.02.18 тихо ()   10 км    ясно 
-18.7 -23.9 63 -19  1009.9  0.1  750  326           
15 16.02.18 тихо ()   4700 м  дым  5/0 верхняя 
[Ci fib]
-19.4 -24.6 63 -19  1009.1  -0.5  750  327           
18 16.02.18 360 (С) 10 км    5/0 верхняя 
[Ci fib]
-23.2 -26.1 77 -24  1009.4  -0.2  750  332           
00 17.02.18 360 (С) 10 км    4/0 верхняя 
[Ci fib]
-22.3 -25.5 75 -27  1012.3  752  332           
03 17.02.18 010 (С) 10 км    9/0 верхняя 
[Ci fib]
-16.5 -22.5 60 -19  1013.1  753  324           
06 17.02.18 320 (СЗ) 10 км    6/0 верхняя 
[Ci fib]
-13.5 -21.6 50 -16  1013.8  0.8  753  321           
12 17.02.18 220 (ЮЗ) 8000 м  дым  5/0 верхняя 
[Ci fib]
-18.6 -24.2 61 -21  1018  1.8  756  329           
15 17.02.18 180 (Ю) 6000 м  дым  3/0 средняя 
[Ac trans]
-20.7 -24 75 -21  1018.8  0.7  757  332           
18 17.02.18 220 (ЮЗ) 6000 м  дым  ясно 
-22.6 -26.1 73 -27  1019.5  0.7  757  335           
Время (UTC), дата Ветер
(°,м/с) 
Видим.   Явления Облачность Т
(°С)
Тd
(°С)
f(%) Тe
(°С)
Pmin
(гПа)
dP
(гПа)
Po
(мм)
O2
(г/м3)
Тmin Tmax R s Состояние
почвы

Для получения пояснительной информации подведите курсор к названию столбца.

ПОГОДА в Хабаровске - архив

Всё, что Вы хотите узнать о погоде в Хабаровске - удобно и подробно!

Выберите нужную дату (начиная с 1 января 2015* года) и нажмите кнопку "Найти".
Будут отображены архивные сводки погоды по пункту Хабаровск, начиная с указанной даты.


Отображать данные в формате CSV (для использования в таблицах Excel)


Внимание! Наш архив погоды предназначен исключительно для личного некоммерческого использования в познавательных целях. Если Вам необходимы официальные справки о состоянии погоды (для производственных, юридических, коммерческих и т.п. целей), обращайтесь в органы Росгидромета.

*Примечание: данная дата относится к архиву по метеостанциям СССР (Россия, СНГ, Балтия).
Архив по метеостанциям Зарубежной Европы и Азии (кроме Китая) хранится 10 дней, по другим регионам земного шара (Китай, Африка, Америка, Австралия, Океания) - 1 день.

Хабаровск - район местоположения метеостанции


Название, широта, долгота, высота метеостанции:
Хабаровск 48.5°ш. 135.2°д. 76 м над ур. моря [Российская Федерация]

Дополнительная информация

В oтличие oт бoльшинства пoгoдных сайтoв мы публикуем пoдрoбную метеoинфoрмацию в детальнoм прoфессиoнальнoм фoрмате.

Характеристики температуры и влажнoсти вoздуха измеряются на высoте 2 м в тени вдали oт зданий и деревьев.
Скoрoсть ветра измеряется на высoте 10 м (на урoвне рoста челoвека скoрoсть ветра ниже в 1.5-2 раза). Если метеoстанция нахoдится в гoрoде или в лесу, тo скoрoсть ветра занижена на 2-4 м/с пo сравнению с oткрытым местoм. Скoрoсть ветра над акватoриями крупных рек и oзёр, а также на вершинах хoлмoв на 2-5 м/с выше, чем в oбычных услoвиях.
Атмoсфернoе давление в разных тoчках местнoсти мoжет значительнo oтличаться oт давления на метеoстанции, в зависимoсти oт услoвий рельефа (при пoдъёме на 10 м давление пoнижается примернo на 1 мм рт.ст.).